DMSP 5D-2 F13 DEB, 42327

Orbit data source: Space-Track

DMSP 5D-2 F13 DEB, 42327 is space debris in SSO originally from a launch on Fri, 24 Mar 1995 UTC launched from the Air Force Western Test Range (AFWTR). Debris objects in space refer to the collection of defunct objects orbiting the Earth. Examples of debris include non-operational satellites, rocket bodies, and fragments generated from explosions, collisions, or faulty payload assembly.

Loading next visibility...
Identifier
42327, 1995-015JV
Orbit
SSO
Country
Flag of USUS
Related business
Manufacturer
Unknown
Mission
Spacecraft
Bus & Motor
Unknown
Mass
Unknown
Launch date (UTC)
1995-03-24 (31 years ago)
Launch vehicle
Unknown
Launch site
Air Force Western Test Range (AFWTR)
Object type
Payload
Rocket body
Debris
Shape & HBR
Unknown shape, 0.1 m
Radar Cross Section
Medium (>0.1 m² and <1 m²)

Expand to show TLE details & history
Last TLE update: 1 week ago

TLE from 1 week ago
0 DMSP 5D-2 F13 DEB
1 42327U 95015JV  26163.34697838  .00004521  00000-0  14268-2 0  9999
2 42327  98.6723 203.3378 0005364  43.6940 316.4672 14.40760099553018
Epoch: 2026-06-12T08:19Z
TLE epoch observation values (Epoch: 2026-06-12T08:19:38.932Z)
Latitude
0.00001°
Longitude
177.74785°
Altitude
756.158 km
Speed
7.478 km/s
True Right ascension
13h 33m 21s
True Declination
0° 00' 00"
Sunlit
Object was in full shadow at epoch
Visualization orbit readout
Latitude
Unknown
Longitude
Unknown
Altitude
Unknown
Speed
Unknown
Apparent Right ascension
Unknown
Apparent Declination
Unknown
Sunlit
N/A
Visualization observer readout
Local Sidereal Time
16:35:32
Azimuth
Unknown
Elevation
Unknown
Doppler factor
Unknown
Orbital elements
Apogee altitude
756.942 km
Perigee altitude
749.292 km
Semi-major axis
7,131.254 km
Eccentricity
0.00054
Inclination
98.6723°
RAAN
203.3378°
Arg. of periapsis
43.694°
True anomaly
316.42484°
Mean anomaly
316.4672°
Eccentric anomaly
316.44602°
Mean motion
3.60408 °/min
Orbital period
99.89 mins
BSTAR
0.0014268
Loading maneuver chart data...
Computing Atmospheric mass density...

Documentation

Showing up to 5 results
|